NOAA 16 DEB, 41514

Orbit data source: Space-Track

NOAA 16 DEB, 41514 is space debris in SSO originally from a launch on Thu, 21 Sep 2000 UTC launched from the Air Force Western Test Range (AFWTR). Debris objects in space refer to the collection of defunct objects orbiting the Earth. Examples of debris include non-operational satellites, rocket bodies, and fragments generated from explosions, collisions, or faulty payload assembly.

Loading next visibility...
Identifier
41514, 2000-055MN
Orbit
SSO
Country
Flag of USUS
Related business
Manufacturer
Unknown
Mission
Spacecraft
Bus & Motor
Unknown
Mass
Unknown
Launch date (UTC)
2000-09-21 (26 years ago)
Launch vehicle
Unknown
Launch site
Air Force Western Test Range (AFWTR)
Object type
Payload
Rocket body
Debris
Shape & HBR
Unknown shape, 0.1 m
Radar Cross Section
Small (<0.1 m²)

Expand to show TLE details & history
Last TLE update: 1 day ago

TLE from 1 day ago
0 NOAA 16 DEB
1 41514U 00055MN  26119.00448026  .00019432  00000-0  28130-2 0  9993
2 41514  98.9065 320.5782 0021005 144.8591 215.4005 14.76009189523609
Epoch: 2026-04-29T00:06Z
TLE epoch observation values (Epoch: 2026-04-29T00:06:27.094Z)
Latitude
-0.0001°
Longitude
101.99366°
Altitude
656.966 km
Speed
7.523 km/s
True Right ascension
21h 22m 18s
True Declination
0° 00' 00"
Sunlit
Object was in daylight at epoch
Visualization orbit readout
Latitude
Unknown
Longitude
Unknown
Altitude
Unknown
Speed
Unknown
Apparent Right ascension
Unknown
Apparent Declination
Unknown
Sunlit
N/A
Visualization observer readout
Local Sidereal Time
11:18:55
Azimuth
Unknown
Elevation
Unknown
Doppler factor
Unknown
Orbital elements
Apogee altitude
653.783 km
Perigee altitude
624.304 km
Semi-major axis
7,017.18 km
Eccentricity
0.0021
Inclination
98.9065°
RAAN
320.5782°
Arg. of periapsis
144.8591°
True anomaly
215.26136°
Mean anomaly
215.4005°
Eccentric anomaly
215.3309°
Mean motion
3.69232 °/min
Orbital period
97.5 mins
BSTAR
0.002813
Loading maneuver chart data...
Computing Atmospheric mass density...
Loading historical data...
Loading historical data...
Loading historical data...
Loading historical data...
Loading historical data...
Loading historical data...
Loading historical data...

Documentation

Showing up to 5 results
|